Regional Weather Roundup
Issued by NWS State College, PA

Home | Current Version | Previous Version | Graphics & Text | Print | Product List | Glossary On
Versions: 1 2 3 4 5 6 7 8 9 10 11 12 13 14 15 16 17 18 19 20 21 22 23 24 25 26 27 28 29 30 31 32 33 34 35 36 37 38 39 40 41 42 43 44 45 46 47 48 49 50
000
ASUS41 KCTP 260410
RWRCTP

REGIONAL WEATHER ROUNDUP
NATIONAL WEATHER SERVICE STATE COLLEGE PA
1200 AM EDT TUE MAY 26 2015

Note: "fair" indicates few or no clouds below 12,000 feet with no
significant weather and/or obstructions to visibility.

* = STATION THAT DOES NOT REPORT PRECIPITATION /E.G. RAIN...SNOW...ETC/
    THUNDER OR FOG.

PAZ002>004-007>009-013>016-020>023-029>032-260500-
WESTERN PENNSYLVANIA

CITY           SKY/WX    TMP DP  RH WIND       PRES   REMARKS
ERIE           CLEAR     74  61  63 S12       30.06R
MEADVILLE      PTCLDY    71  60  68 SW7       30.11R
FRANKLIN*      MOCLDY    72  57  60 SW12      30.14R
NEW CASTLE     MOCLDY    73  63  71 CALM      30.13R
BEAVER COUNTY  NOT AVBL
BUTLER*        PTCLDY    73  59  60 SW6       30.15S
PITTSBURGH INT PTCLDY    75  60  59 SW7       30.14R
PITTSBURGH     CLOUDY    74  57  55 S6        30.14S
INDIANA*       CLOUDY    72  61  68 CALM      30.19R
LATROBE        CLEAR     68  63  83 CALM      30.17R
WASHINGTON CO* MOCLDY    64  61  88 CALM      30.17R
$$

PAZ004>006-010>012-017>019-024>028-033>037-041-042-045-046-049>053-260500-
CENTRAL PENNSYLVANIA

CITY           SKY/WX    TMP DP  RH WIND       PRES   REMARKS
BRADFORD       CLOUDY    72  58  61 SW9       30.14S
DUBOIS         CLOUDY    74  59  59 SW10      30.15R
CLEARFIELD     CLOUDY    71  57  61 SW6       30.16R
JOHNSTOWN      CLOUDY    69  57  65 S5        30.20S
ALTOONA        PTCLDY    69  58  67 SW3       30.19S
STATE COLLEGE  PTCLDY    72  59  64 S7        30.15F
WILLIAMSPORT   PTCLDY    77  58  51 S16G28    30.10S
SELINSGROVE    CLEAR     75  58  55 S7        30.16S
FT INDIANTOWN  CLEAR     65  61  87 N2        30.20S
CAPITAL CITY   CLEAR     72  58  61 S5        30.18S
HARRISBURG     CLEAR     72  60  66 S10       30.18S
YORK           CLEAR     70  58  65 SE6       30.19S
$$

PAZ038>040-043-044-047-048-054-055-060>062-067>071-260500-
EASTERN PENNSYLVANIA

CITY           SKY/WX    TMP DP  RH WIND       PRES   REMARKS
SCRANTON       CLEAR     72  58  61 SW8       30.17R
MOUNT POCONO   PTCLDY    66  56  70 SW10      30.22S HAZE
ALLENTOWN      PTCLDY    72  59  63 SW9       30.20R
QUAKERTOWN*    CLEAR     70  59  68 SW6       30.22S
READING        CLEAR     72  59  63 S9        30.20R
LANCASTER      CLEAR     68  59  73 S7        30.21R
COATESVILLE    CLEAR     68  59  73 S3        30.23F
POTTSTOWN      CLEAR     71  58  63 SW5       30.23S
BLUE BELL      CLEAR     72  59  64 S8        30.21F
DOYLESTOWN     CLEAR     70  58  65 S6        30.21S
WILLOW GROVE   NOT AVBL
NORTH PHILA    CLEAR     72  54  53 S7        30.24S
PHILADELPHIA   PTCLDY    71  55  56 S8        30.23S
$$



USA.gov is the U.S. government's official web portal to all federal, state and local government web resources and services.